Погода в Сектагли

Погода в Сектагли : погода сейчас, прогноз погоды и архив. Всё, что Вы хотите узнать о погоде в Сектагли!

Поиск расширенной информации на нашем сайте:

Другие новости

Новости СМИ2

Главная страница сайта

Новости сайта

03.07.2017

Напоминаем, что на нашем специализированном сайте Метеоцентр.Азия вы можете получить высокодетализированные автоматические прогнозы погоды по пунктам России, СНГ и мира в авиационном формате (включающие направление и скорость ветра, видимость, явления погоды, количество и форму облачности, нижнюю и верхнюю границу облачности).


Погода в Сектагли - сегодня

Время (UTC), дата Ветер
(°,м/с) 
Видим.   Явления Облачность Т
(°С)
Тd
(°С)
f(%) Тe
(°С)
Pmin
(гПа)
dP
(гПа)
Po
(мм)
O2
(г/м3)
Тmin Tmax R s Состояние
почвы
21 16.08.17 тихо ()   20000 м  {ливн. осадки}  10/10 600 м кучево-дожд. 
[Cb cap]
+18.8 +18.2 96 +34  1014.3  0.6  737  274  +18.5    0.1    влажная 
00 17.08.17 180 (Ю) 20000 м  слаб. ливневой дождь  10/10 600 м кучево-дожд. 
[Cb cap]
+18.8 +17.2 90 +33  1015.1  0.8  738  274           
03 17.08.17 тихо ()   20000 м  {ливн. осадки}  10/10 600 м 
[Sc]
+22 +18.2 79 +37  1014.1  -0.6  737  271           
06 17.08.17 200 (Ю) 20000 м  {ливн. осадки}  8/5 600 м верхняя 
[Cu med, cong|Ci fib]
+24.9 +18.6 68 +41  1012.2  -1.6  736  267           
09 17.08.17 230 (ЮЗ) 20000 м    8/3 600 м верхняя 
[Cu med, cong|Ci fib]
+24.5 +19.5 74 +43  1011.4  -0.8  735  267    +25.4  0.0     
12 17.08.17 270 (З) 20000 м    9/3 600 м средняя, верхняя 
[Sc diur, vesp|Ac cuf|Ci fib]
+19.8 +18.8 94 +38  1012.4  0.5  736  272           
15 17.08.17 270 (З) 20000 м    6/3 600 м средняя, верхняя 
[Sc diur, vesp|Ac cuf|Ci fib]
+18.3 +17.8 97 +35  1012.9  0.4  736  274           
18 17.08.17 тихо ()   20000 м    10/10 600 м 
[St]
+18.7 +18.2 97 +34  1012.8  -0.1  736  273           
21 17.08.17 тихо ()   20000 м    9/9 600 м 
[St]
+18.2 +17.9 98 +33  1012.7  -0.1  736  274  +16.8        сухая 
00 18.08.17 070 (В) 20000 м    9/9 600 м 
[St]
+21.1 +19 88 +38  1012.5  0.1  736  271           
03 18.08.17 090 (В) 20000 м    8/6 600 м кучево-дожд., средняя 
[Cb cap|Ac As]
+26 +19.7 68 +45  1011.5  -0.5  736  266           
06 18.08.17 290 (З) 20000 м  гроза, ливневой дождь  9/8 600 м кучево-дожд., средняя, верхняя 
[Cb cap|Ac lent|Ci fib]
+20 +18.9 93 +37  1011.3  -0.9  735  271           
09 18.08.17 тихо ()   20000 м  {гроза, ливн. осадки}  6/3 600 м средняя, верхняя 
[Sc|Ac trans|Ci fib]
+24.8 +21.2 80 +47  1010.1  -0.5  735  266    +27.4     
12 18.08.17 290 (З) 20000 м  гроза без осадков  5/4 600 м кучево-дожд., средняя 
[Cb cap|Ac lent]
+20.3 +19.8 97 +39  1011.4  0.7  735  271           
15 18.08.17 тихо ()   20000 м  {гроза}  ясно 
+18 +17.8 99 +33  1012.1  0.4  735  274           
18 18.08.17 тихо ()   20000 м    3/3 600 м 
[Sc diur, vesp]
+17.6 +17.4 99 +31  1011.9  -0.2  735  274           
21 18.08.17 тихо ()   20000 м  слаб. ливневой дождь  10/10 600 м кучево-дожд. 
[Cb cap]
+17.8 +17.5 98 +32  1011.8  735  274  +16.5    0.0    влажная 
00 19.08.17 тихо ()   20000 м  в посл. час ливневой дождь  10/10 600 м кучево-дожд. 
[Cb cap]
+20.4 +19.8 96 +39  1011.6  0.1  735  271           
03 19.08.17 050 (СВ) 20000 м    1/1 600 м 
[Cu hum]
+24.4 +20.7 80 +45  1010.9  -0.4  735  267           
06 19.08.17 200 (Ю) 20000 м    3/3 600 м 
[Cu med, cong]
+29.4 +18.6 52 +46  1010.4  -1.4  734  263           
09 19.08.17 230 (ЮЗ) 20000 м    8/4 1000 м средняя, верхняя 
[Sc diur, vesp|Ac cuf|Ci ing]
+27.6 +20 63 +47  1008.7  -0.4  734  264    +29.9     
12 19.08.17 тихо ()   20000 м    9/4 1000 м средняя, верхняя 
[Sc diur, vesp|Ac cuf|Ci fib]
+21.4 +20.2 93 +41  1009.8  0.5  734  269           
15 19.08.17 тихо ()   20000 м    10/3 1000 м средняя, верхняя 
[Sc diur, vesp|Ac cuf|Ci fib]
+19.2 +18.7 97 +36  1010.9  0.8  735  272           
18 19.08.17 тихо ()   20000 м    10/1 1000 м средняя, верхняя 
[Sc diur, vesp|Ac cuf|Ci fib]
+18.5 +18.2 98 +34  1010.8  -0.1  735  273           
21 19.08.17 тихо ()   0500 м  туман  ?/?  
+17.6 +17.6 100 +32  1011.1  0.1  735  274  +17.4        влажная 
Время (UTC), дата Ветер
(°,м/с) 
Видим.   Явления Облачность Т
(°С)
Тd
(°С)
f(%) Тe
(°С)
Pmin
(гПа)
dP
(гПа)
Po
(мм)
O2
(г/м3)
Тmin Tmax R s Состояние
почвы

Для получения пояснительной информации подведите курсор к названию столбца.

ПОГОДА в Сектагли - архив

Всё, что Вы хотите узнать о погоде в Сектагли - удобно и подробно!

Выберите нужную дату (начиная с 1 января 2015* года) и нажмите кнопку "Найти".
Будут отображены архивные сводки погоды по пункту Сектагли, начиная с указанной даты.


Отображать данные в формате CSV (для использования в таблицах Excel)


Внимание! Наш архив погоды предназначен исключительно для личного некоммерческого использования в познавательных целях. Если Вам необходимы официальные справки о состоянии погоды (для производственных, юридических, коммерческих и т.п. целей), обращайтесь в органы Росгидромета.

*Примечание: данная дата относится к архиву по метеостанциям СССР (Россия, СНГ, Балтия).
Архив по метеостанциям Зарубежной Европы и Азии (кроме Китая) хранится 10 дней, по другим регионам земного шара (Китай, Африка, Америка, Австралия, Океания) - 1 день.

Сектагли - район местоположения метеостанции


Название, широта, долгота, высота метеостанции:
Сектагли 50.4°ш. 131°д. 230 м над ур. моря [Российская Федерация]

Дополнительная информация

В oтличие oт бoльшинства пoгoдных сайтoв мы публикуем пoдрoбную метеoинфoрмацию в детальнoм прoфессиoнальнoм фoрмате.

Характеристики температуры и влажнoсти вoздуха измеряются на высoте 2 м в тени вдали oт зданий и деревьев.
Скoрoсть ветра измеряется на высoте 10 м (на урoвне рoста челoвека скoрoсть ветра ниже в 1.5-2 раза). Если метеoстанция нахoдится в гoрoде или в лесу, тo скoрoсть ветра занижена на 2-4 м/с пo сравнению с oткрытым местoм. Скoрoсть ветра над акватoриями крупных рек и oзёр, а также на вершинах хoлмoв на 2-5 м/с выше, чем в oбычных услoвиях.
Атмoсфернoе давление в разных тoчках местнoсти мoжет значительнo oтличаться oт давления на метеoстанции, в зависимoсти oт услoвий рельефа (при пoдъёме на 10 м давление пoнижается примернo на 1 мм рт.ст.).